Location: Chandrammap?lem
(16.9200°N, 81.0051°E)
Time: 05:15:34
(UTC+00:00)

GOES 2 Rocket - Pass Details

Date: 29 May 2024
Orbit: 569 x 1666 km, 28.4° (Epoch: 19 June)

Event Time Altitude Azimuth Distance (km) Brightness Sun altitude
Exits shadow 22:52:50 21° 263° (W) 1,824 4.9 -15.7°
Maximum altitude 22:56:51 65° 340° (NNW) 1,071 4.2 -14.8°
Drops below altitude 10° 23:04:32 10° 61° (ENE) 3,181 8.2 -13.2°
Sets 23:07:52 0° 64° (ENE) 4,328 9.5 -12.5°
